Location: Firdgum
(53.2488°N, 5.5615°E)
Time: 10:07:02
(UTC+00:00)

Cosmos 1420 Rocket - Pass Details

Date: 08 December 2019
Orbit: 754 x 781 km, 74.0° (Epoch: 17 January)

Event Time Altitude Azimuth Distance (km) Brightness Sun altitude
Rises 05:33:00 0° 202° (SSW) 3,211 7.2 -17.5°
Reaches altitude 10° 05:35:21 10° 202° (SSW) 2,287 6.4 -17.1°
Maximum altitude 05:40:33 86° 114° (ESE) 767 4.0 -16.4°
Drops below altitude 10° 05:45:46 10° 27° (NNE) 2,294 6.6 -15.6°
Sets 05:48:08 0° 27° (NNE) 3,222 7.4 -15.3°
